SENTINEL-2B

Last updated on Mon Sep 21 2026 00:02:46 GMT+0000 (Coordinated Universal Time)

1 42063U 17013A 26263.59211295 .00000276 00000+0 12211-3 0 9994 2 42063 98.5709 336.9934 0001197 85.8635 274.2685 14.30816269498280
UTC large
Height (km)
Speed (km/s)
/
Latitude / Longitude
Inclination (degrees)
Orbital Period (minutes)
Azimuth
Elevation
Range (km)
Doppler Factor

Next 0 passes for location: London (51.5072 / 0.1276)

No passes found over London.
SENTINEL-2B